Meteo Giornale » Osservazioni meteo Arabia Saudita » Gizan
ore: 07:00 - Osservazioni Meteo Gizan
Lat. 16° 54' N Lon. 42° 35' E Alt. 6 metri s.l.m.
33 °C
Sereno
Temp. 24 Ore
32 °C
39 °C
Nord
0 Km/h
Dew point 26 °C
Umidità 66 %
Visibilità 10 Km
Il sole sorge alle ore 05:56
Il sole tramonta alle ore 18:23
| Data e Ora | Cielo e Fenomeni | T °C | DP °C | Um. % | Pres. hPa | Vis. km | Vento km/h | |
|---|---|---|---|---|---|---|---|---|
| Oggi h: 07:00 | Sereno | 33 | 26 | 66 | 1006 | 10 | N 0 | |
| Oggi h: 06:00 | Sereno | 32 | 25 | 66 | 1005 | 10 | N 0 | |
| Oggi h: 05:00 | Sereno | 33 | 25 | 62 | 1005 | 10 | E/NE 7.4 | |
| Oggi h: 04:00 | Sereno | 33 | 25 | 62 | 1005 | 10 | N 5.5 | |
| Oggi h: 03:00 | Poco Nuvoloso | 33 | 27 | 70 | 1005 | 10 | N 5.5 | |
| Oggi h: 02:00 | Poco Nuvoloso | 33 | 27 | 70 | 1005 | 10 | N 0 | |
| Oggi h: 01:00 | Poco Nuvoloso | 33 | 27 | 70 | 1005 | 10 | N 0 | |
| Oggi h: 00:00 | Poco Nuvoloso | 34 | 27 | 67 | 1005 | 10 | N/NO 9.3 | |
| Ieri h: 23:00 | Poco Nuvoloso | 34 | 26 | 63 | 1006 | 10 | NO 7.4 | |
| Ieri h: 22:00 | Sereno | 35 | 25 | 56 | 1006 | 10 | NO 9.3 | |
| Ieri h: 21:00 | Poco Nuvoloso | 35 | 26 | 59 | 1006 | 10 | O 11.1 | |
| Ieri h: 20:00 | Nuvoloso | 34 | 27 | 67 | 1005 | 10 | NO 9.3 | |
| Ieri h: 19:00 | Nuvoloso | 34 | 28 | 71 | 1005 | 10 | O/NO 18.5 | |
| Ieri h: 18:00 | Nuvoloso | 35 | 28 | 67 | 1004 | 10 | O 16.7 | |
| Ieri h: 17:00 | Nuvoloso | 35 | 28 | 67 | 1004 | 10 | O 18.5 | |
| Ieri h: 16:00 | Poco Nuvoloso | 36 | 28 | 63 | 1004 | 10 | O 18.5 | |
| Ieri h: 15:00 | Poco Nuvoloso | 38 | 23 | 42 | 1005 | 10 | O/SO 18.5 | |
| Ieri h: 14:00 | Poco Nuvoloso | 39 | 23 | 40 | 1005 | 10 | O/SO 14.8 | |
| Ieri h: 13:00 | Poco Nuvoloso | 38 | 25 | 47 | 1006 | 10 | O/SO 14.8 | |
| Ieri h: 12:00 | Poco Nuvoloso | 38 | 25 | 47 | 1007 | 10 | O 14.8 | |
| Ieri h: 11:00 | Poco Nuvoloso | 37 | 26 | 53 | 1007 | 10 | S/SO 13 | |
| Ieri h: 10:00 | Poco Nuvoloso | 36 | 26 | 56 | 1007 | 10 | S/SO 9.3 | |
| Ieri h: 09:00 | Sereno | 36 | 27 | 60 | 1007 | 10 | S/SO 9.3 | |
| Ieri h: 08:00 | Poco Nuvoloso | 34 | 26 | 63 | 1007 | 10 | N 0 | |



